Weather reports worldwide

Advertisment
Regensburg, Germany (10776): temperature & dewpoint: 14.06.2019 06:00:00 - 20.06.2019 06:00:00 (CEST)Regensburg, Germany (10776): temperature 5cm & temperature -5cm: 14.06.2019 06:00:00 - 20.06.2019 06:00:00 (CEST)Regensburg, Germany (10776): temperature -20cm & temperature -100cm: 14.06.2019 06:00:00 - 20.06.2019 06:00:00 (CEST)Regensburg, Germany (10776): wind speed & gusts: 14.06.2019 06:00:00 - 20.06.2019 06:00:00 (CEST)Regensburg, Germany (10776): wind direction: 14.06.2019 06:00:00 - 20.06.2019 06:00:00 (CEST)Regensburg, Germany (10776): reduced air pressure: 14.06.2019 06:00:00 - 20.06.2019 06:00:00 (CEST)Regensburg, Germany (10776): visibility: 14.06.2019 06:00:00 - 20.06.2019 06:00:00 (CEST)Regensburg, Germany (10776): sunshine duration: 14.06.2019 06:00:00 - 20.06.2019 06:00:00 (CEST)Regensburg, Germany (10776): precipitation: 14.06.2019 06:00:00 - 20.06.2019 06:00:00 (CEST)
Date & Time tt [°C] td [°C] tt 5cm [°C] tt -5cm [°C] tt -20cm [°C] tt -100cm [°C] ff [km/h] ff [kn] fx [km/h] fx [kn] dd ppp [hPa] vv [km] sd [min] rr [mm]
20.06.2019 06:00:00 18,1 14,1 17,5 21,6 24,6 18,2 5 3 25 13 WSW 1012,7 75 0 0,0
20.06.2019 05:00:00 18,6 13,9 17,7 21,9 24,9 18,2 16 9 40 22 W 1012,5 64 0 0,0
20.06.2019 04:00:00 19,7 13,9 18,2 22,3 25,2 18,2 10 5 21 11 SSW 1011,4 63 0 0,0
20.06.2019 03:00:00 19,8 13,7 18,2 22,6 25,6 18,2 10 5 17 9 SE 1009,9 56 0 0,0
20.06.2019 02:00:00 19,7 14,5 16,7 23,2 25,9 18,2 5 3 9 5 SSE 1009,9 56 0 0,0
20.06.2019 01:00:00 20,7 13,7 17,4 24,0 26,3 18,2 5 3 11 6 SE 1009,7 63 0 0,0
20.06.2019 00:00:00 21,1 13,9 17,1 24,9 26,6 18,2 7 4 11 6 SE 1009,7 71 0 0,0
19.06.2019 23:00:00 21,9 14,6 18,1 26,0 26,9 18,2 3 2 13 7 SSE 1009,1 55 0 0,0
19.06.2019 22:00:00 24,1 14,7 21,2 27,3 27,0 18,2 8 5 18 10 SE 1008,7 62 0 0,0
19.06.2019 21:00:00 25,8 13,6 23,5 28,9 27,1 18,2 9 5 16 9 ESE 1008,4 72 13 0,0
19.06.2019 20:00:00 28,5 11,3 27,4 30,8 26,9 18,2 9 5 20 11 ESE 1008,0 75 57 0,0
19.06.2019 19:00:00 29,8 12,0 31,1 33,0 26,5 18,1 5 3 16 8 SSW 1007,4 75 47 0,0
19.06.2019 18:00:00 29,6 10,8 32,2 34,6 26,0 18,1 8 4 17 9 S 1007,7 75 60 0,0
19.06.2019 17:00:00 30,0 10,8 35,2 35,3 25,4 18,1 5 3 19 10 ESE 1008,3 75 57 0,0
19.06.2019 16:00:00 29,3 10,7 35,2 36,0 24,7 18,1 6 3 22 12 S 1008,7 57 58 0,0
19.06.2019 15:00:00 29,4 13,2 35,3 35,5 23,9 18,1 9 5 22 12 SSE 1009,5 54 60 0,0
19.06.2019 14:00:00 28,1 13,8 34,8 34,0 23,3 18,1 7 4 21 11 SSE 1010,3 61 60 0,0
19.06.2019 13:00:00 27,6 13,5 34,2 31,5 22,8 18,1 7 4 19 10 SSE 1010,7 71 60 0,0
19.06.2019 12:00:00 24,5 14,4 28,0 28,8 22,5 18,1 7 4 16 9 SSE 1011,5 55 57 0,0
19.06.2019 11:00:00 22,5 15,2 24,0 25,5 22,3 18,1 9 5 17 9 ESE 1011,8 37 5 0,0
19.06.2019 10:00:00 21,6 14,7 23,7 24,0 22,3 18,1 8 4 15 8 SE 1012,1 35 16 0,0
19.06.2019 09:00:00 20,2 15,1 21,5 21,5 22,4 18,1 9 5 16 9 SE 1012,5 38 1 0,0
19.06.2019 08:00:00 19,2 15,1 19,6 20,2 22,6 18,1 4 2 11 6 SSE 1012,6 39 4 0,0
19.06.2019 07:00:00 18,3 15,0 18,0 19,5 22,9 18,1 6 4 12 6 SE 1012,7 34 18 0,0
19.06.2019 06:00:00 16,3 14,5 14,9 19,4 23,2 18,1 4 2 8 5 SSE 1013,1 31 0 0,0
19.06.2019 05:00:00 16,1 14,1 14,7 19,7 23,6 18,1 4 2 5 3 S 1012,9 39 0 0,0
19.06.2019 04:00:00 16,6 14,3 15,0 20,0 23,9 18,1 4 2 7 4 SE 1013,0 42 0 0,0
19.06.2019 03:00:00 16,7 14,1 15,9 20,5 24,3 18,1 4 2 14 8 W 1013,0 43 0 0,0
19.06.2019 02:00:00 16,6 14,0 14,2 21,0 24,7 18,1 3 2 8 4 NW 1013,3 50 0 0,0
19.06.2019 01:00:00 17,4 13,2 15,0 21,8 25,1 18,1 0 0 5 3 N 1013,4 55 0 0,0
19.06.2019 00:00:00 18,4 13,8 16,3 22,7 25,4 18,1 5 3 8 4 NNW 1013,1 61 0 0,0
18.06.2019 23:00:00 19,8 14,1 16,5 23,7 25,7 18,1 5 3 11 6 N 1012,7 61 0 0,0
18.06.2019 22:00:00 21,5 12,6 17,6 25,1 25,9 18,1 4 2 7 4 N 1012,5 71 0 0,0
18.06.2019 21:00:00 24,1 11,9 19,6 26,9 26,0 18,1 4 2 8 4 ENE 1012,0 68 19 0,0
18.06.2019 20:00:00 27,4 9,9 25,3 28,9 25,8 18,1 5 3 10 5 ENE 1011,7 75 60 0,0
18.06.2019 19:00:00 28,5 9,4 29,0 31,5 25,4 18,1 2 1 16 9 SE 1011,6 73 60 0,0
18.06.2019 18:00:00 28,7 9,4 31,6 32,7 24,8 18,1 4 2 15 8 NNE 1011,7 55 60 0,0
18.06.2019 17:00:00 28,6 10,0 31,8 33,9 24,2 18,1 5 3 16 8 SSE 1012,1 62 60 0,0
18.06.2019 16:00:00 27,9 12,2 32,2 34,5 23,4 18,1 7 4 18 10 SE 1012,6 75 60 0,0
18.06.2019 15:00:00 26,6 12,4 31,2 34,3 22,7 18,1 7 4 20 11 ESE 1013,4 75 60 0,0
18.06.2019 14:00:00 26,8 14,3 31,0 32,6 22,0 18,1 7 4 21 11 SE 1013,8 56 60 0,0
18.06.2019 13:00:00 25,9 14,2 29,3 30,9 21,4 18,1 14 8 27 15 ESE 1014,4 75 60 0,0
18.06.2019 12:00:00 25,5 13,8 28,7 28,5 20,9 18,1 10 6 31 17 ESE 1014,9 74 60 0,0
18.06.2019 11:00:00 24,1 13,6 26,4 26,1 20,5 18,1 11 6 22 12 ESE 1015,5 67 60 0,0
18.06.2019 10:00:00 23,7 13,4 25,9 23,9 20,4 18,1 9 5 19 10 E 1015,8 19 60 0,0
18.06.2019 09:00:00 21,7 13,5 23,9 20,4 20,5 18,1 5 3 13 7 N 1016,4 40 60 0,0
18.06.2019 08:00:00 18,2 14,4 16,0 16,9 20,7 18,1 7 4 11 6 N 1016,7 43 60 0,0
18.06.2019 07:00:00 15,3 13,1 13,6 16,6 21,0 18,1 8 4 15 8 N 1017,1 41 38 0,0
18.06.2019 06:00:00 14,6 12,8 12,8 16,6 21,3 18,1 8 5 12 6 N 1017,0 42 0 0,0
18.06.2019 05:00:00 14,8 12,9 12,7 17,0 21,6 18,1 9 5 12 7 N 1017,1 45 0 0,0
18.06.2019 04:00:00 15,1 13,1 13,3 17,5 21,9 18,1 8 5 12 6 N 1017,2 30 0 0,0
18.06.2019 03:00:00 15,6 13,3 13,2 18,1 22,2 18,1 7 4 9 5 N 1017,4 48 0 0,0
18.06.2019 02:00:00 16,6 13,2 14,1 18,7 22,6 18,1 7 4 8 5 N 1017,7 38 0 0,0
18.06.2019 01:00:00 18,0 13,1 14,4 19,4 22,8 18,1 5 3 10 6 NNE 1017,8 53 0 0,0
18.06.2019 00:00:00 19,1 13,0 15,2 20,2 23,1 18,1 4 2 8 5 NNE 1017,4 54 0 0,0
17.06.2019 23:00:00 19,8 12,8 16,6 21,0 23,4 18,1 5 3 12 6 NNE 1017,2 62 0 0,0
17.06.2019 22:00:00 20,3 12,7 17,2 21,8 23,6 18,1 6 3 12 6 NNE 1016,9 63 0 0,0
17.06.2019 21:00:00 22,3 12,1 19,5 22,7 23,7 18,1 8 4 17 9 NNE 1016,3 69 10 0,0
17.06.2019 20:00:00 24,0 12,1 22,4 24,0 23,7 18,1 10 6 20 11 NNE 1016,2 68 48 0,0
17.06.2019 19:00:00 24,3 11,4 23,2 25,7 23,6 18,1 7 4 19 10 NE 1016,3 74 24 0,0
17.06.2019 18:00:00 26,0 12,1 27,0 26,8 23,5 18,1 6 4 24 13 E 1016,2 65 40 0,0
17.06.2019 17:00:00 26,0 11,7 27,5 27,6 23,2 18,1 7 4 22 12 E 1016,7 64 33 0,0
17.06.2019 16:00:00 25,2 12,5 26,1 28,7 22,8 18,1 11 6 20 11 NNE 1017,5 69 35 0,0
17.06.2019 15:00:00 24,5 13,3 25,6 29,7 22,2 18,1 7 4 18 10 NNE 1018,3 54 31 0,0
17.06.2019 14:00:00 25,0 13,6 27,7 31,2 21,6 18,1 8 4 20 11 N 1018,4 63 58 0,0
17.06.2019 13:00:00 24,5 13,6 27,8 29,1 21,1 18,0 9 5 24 13 E 1018,9 45 60 0,0
17.06.2019 12:00:00 23,2 13,9 25,5 27,1 20,6 18,0 12 7 24 13 SE 1019,4 56 59 0,0
17.06.2019 11:00:00 21,9 13,8 23,9 25,5 20,2 18,0 10 5 18 10 SE 1020,0 64 59 0,0
17.06.2019 10:00:00 20,4 13,8 22,1 23,2 20,1 18,0 5 3 12 7 SE 1020,6 63 59 0,0
17.06.2019 09:00:00 17,8 14,0 18,4 19,9 20,1 18,0 4 2 11 6 N 1021,4 34 46 0,0
17.06.2019 08:00:00 14,1 13,5 14,6 17,3 20,3 18,0 5 3 13 7 NNE 1022,0 1,0 0 0,0
17.06.2019 07:00:00 13,0 12,6 13,2 16,2 20,6 18,0 6 4 10 5 NNW 1022,2 3,6 0 0,0
17.06.2019 06:00:00 12,3 12,0 11,9 15,6 20,9 18,0 4 2 10 5 NNE 1022,2 0,6 0 0,0
17.06.2019 05:00:00 12,3 11,9 10,9 15,9 21,2 18,0 4 2 8 5 N 1022,1 5 0 0,0
17.06.2019 04:00:00 12,9 12,5 11,7 16,4 21,5 18,0 5 3 10 5 N 1021,9 4,3 0 0,0
17.06.2019 03:00:00 13,4 12,9 12,3 16,9 21,8 18,0 7 4 10 6 N 1021,7 13 0 0,0
17.06.2019 02:00:00 13,8 13,2 12,5 17,5 22,2 18,0 5 3 6 3 NNW 1022,4 9 0 0,0
17.06.2019 01:00:00 14,4 13,8 13,4 17,9 22,5 17,9 4 2 7 4 NNW 1022,6 15 0 0,0
17.06.2019 00:00:00 14,8 14,0 13,2 18,6 22,8 17,9 3 2 4 2 NW 1022,1 24 0 0,0
16.06.2019 23:00:00 15,4 14,2 13,7 19,5 23,0 17,9 1 1 6 4 NW 1022,1 34 0 0,0
16.06.2019 22:00:00 16,6 14,4 14,7 20,6 23,2 17,9 4 2 14 8 WNW 1021,7 60 0 0,0
16.06.2019 21:00:00 18,1 15,2 16,6 21,7 23,3 17,9 6 3 12 6 NW 1021,0 62 0 0,0
16.06.2019 20:00:00 18,5 15,1 17,7 22,9 23,3 17,9 5 3 11 6 W 1020,6 46 4 0,0
16.06.2019 19:00:00 19,7 12,5 19,4 24,3 23,2 17,9 4 2 12 6 NNW 1020,6 65 34 0,0
16.06.2019 18:00:00 21,5 13,6 22,6 24,5 23,1 17,9 4 2 10 6 NW 1020,0 72 13 0,0
16.06.2019 17:00:00 19,3 13,1 19,5 24,9 23,0 17,9 6 4 14 7 N 1020,4 65 13 0,0
16.06.2019 16:00:00 19,7 15,3 20,8 24,2 23,0 17,8 8 4 17 9 N 1020,5 75 2 0,0
16.06.2019 15:00:00 18,9 15,1 20,0 23,8 23,0 17,8 8 4 19 10 N 1020,7 31 0 0,0
16.06.2019 14:00:00 17,3 15,6 18,2 22,1 23,1 17,8 8 4 18 10 NW 1020,9 23 0 0,2
16.06.2019 13:00:00 16,6 15,6 16,7 22,0 23,2 17,8 4 2 16 9 NW 1021,0 6 0 1,1
16.06.2019 12:00:00 16,3 14,8 16,3 22,2 23,3 17,8 7 4 16 8 S 1020,6 5 0 2,1
16.06.2019 11:00:00 18,2 15,3 18,2 23,1 23,3 17,8 4 2 12 6 NNW 1019,9 31 0 0,0
16.06.2019 10:00:00 18,2 15,7 18,6 23,1 23,4 17,8 5 3 15 8 NW 1019,6 58 2 0,0
16.06.2019 09:00:00 18,1 16,1 18,7 22,0 23,6 17,8 6 3 14 7 NNW 1019,3 52 0 0,0
16.06.2019 08:00:00 16,7 15,8 17,3 20,7 23,9 17,8 5 3 9 5 W 1019,2 38 0 0,0
16.06.2019 07:00:00 15,8 15,3 16,0 20,3 24,4 17,7 4 2 16 9 WNW 1018,6 36 0 0,0
16.06.2019 06:00:00 15,6 15,2 15,8 20,0 24,8 17,7 13 7 24 13 W 1018,2 25 0 1,8
16.06.2019 05:00:00 15,3 14,5 15,2 20,5 25,2 17,7 14 7 33 18 N 1017,5 8 0 9,0
16.06.2019 04:00:00 16,0 15,3 15,9 23,1 25,5 17,7 20 11 34 18 W 1017,3 6 0 3,6
16.06.2019 03:00:00 18,2 14,4 18,0 23,8 25,8 17,7 10 6 28 15 NW 1016,3 67 0 0,0
16.06.2019 02:00:00 19,4 13,7 18,8 24,4 26,1 17,7 11 6 30 16 NNW 1015,3 74 0 0,0
16.06.2019 01:00:00 19,7 13,3 19,2 24,9 26,4 17,7 8 5 14 8 NW 1014,7 75 0 0,0
16.06.2019 00:00:00 19,9 13,3 19,2 25,7 26,7 17,7 9 5 16 9 NNW 1013,9 75 0 0,0
15.06.2019 23:00:00 20,8 13,0 20,2 26,7 27,0 17,7 9 5 18 10 NNW 1013,9 75 0 0,0
15.06.2019 22:00:00 21,5 12,4 21,1 27,8 27,2 17,7 7 4 20 11 NNW 1013,9 75 0 0,0
15.06.2019 21:00:00 22,4 12,1 22,3 29,3 27,3 17,7 9 5 19 10 NW 1013,9 75 10 0,0
15.06.2019 20:00:00 23,9 12,2 24,2 30,7 27,3 17,7 8 5 21 11 NNW 1013,3 11 27 0,0
15.06.2019 19:00:00 24,5 12,5 25,2 33,2 27,0 17,6 10 6 31 17 W 1013,4 74 31 0,0
15.06.2019 18:00:00 26,7 12,0 30,5 35,2 26,7 17,6 15 8 29 15 NW 1013,0 75 59 0,0
15.06.2019 17:00:00 28,0 12,6 33,7 36,4 26,2 17,6 14 7 27 15 W 1013,0 55 60 0,0
15.06.2019 16:00:00 28,5 12,8 35,1 37,0 25,7 17,6 13 7 31 17 WNW 1012,9 70 60 0,0
15.06.2019 15:00:00 27,5 13,0 32,7 36,7 25,2 17,6 10 5 29 16 WNW 1012,9 51 51 0,0
15.06.2019 14:00:00 27,9 12,2 35,4 36,0 24,6 17,6 15 8 31 17 W 1012,8 75 52 0,0
15.06.2019 13:00:00 27,7 11,4 35,7 36,0 24,0 17,6 16 8 36 19 WNW 1012,5 53 60 0,0
15.06.2019 12:00:00 27,7 12,1 35,6 33,8 23,5 17,6 16 9 45 24 W 1012,1 64 60 0,0
15.06.2019 11:00:00 26,9 12,5 33,7 30,7 23,2 17,6 13 7 41 22 WNW 1011,9 74 45 0,0
15.06.2019 10:00:00 25,6 13,8 29,7 27,2 23,2 17,6 17 9 28 15 W 1011,2 48 33 0,0
15.06.2019 09:00:00 25,9 16,8 28,7 24,3 23,2 17,6 7 4 18 10 WSW 1010,1 39 35 0,0
15.06.2019 08:00:00 22,8 17,2 21,6 22,4 23,4 17,6 8 5 16 8 SE 1009,2 34 48 0,0
15.06.2019 07:00:00 21,0 16,9 20,4 22,2 23,6 17,6 7 4 18 10 SSE 1009,0 28 0 0,0
15.06.2019 06:00:00 20,9 16,7 19,7 22,3 23,7 17,6 8 4 24 13 SSE 1008,9 30 0 0,0
15.06.2019 05:00:00 21,6 16,6 20,7 22,5 24,0 17,6 11 6 22 12 SE 1008,6 39 0 0,0
15.06.2019 04:00:00 22,0 16,5 20,6 22,8 24,2 17,5 9 5 22 12 SSE 1009,1 36 0 0,0
15.06.2019 03:00:00 22,5 16,0 20,8 23,0 24,4 17,5 9 5 21 12 SE 1009,1 44 0 0,0
15.06.2019 02:00:00 22,7 15,8 20,0 23,3 24,7 17,5 8 4 22 12 SE 1009,1 44 0 0,0
15.06.2019 01:00:00 21,5 15,6 19,1 23,9 24,9 17,5 5 3 16 8 SSE 1009,5 43 0 0,0
15.06.2019 00:00:00 21,4 15,3 19,9 24,5 25,2 17,5 5 3 14 8 NNW 1010,1 49 0 0,0
14.06.2019 23:00:00 22,4 15,1 20,5 25,0 25,4 17,5 7 4 10 5 N 1010,3 47 0 0,0
14.06.2019 22:00:00 23,3 14,8 19,5 26,1 25,6 17,5 8 4 13 7 N 1010,2 53 0 0,0
14.06.2019 21:00:00 24,6 15,3 21,5 27,7 25,6 17,5 6 3 13 7 N 1010,4 54 0 0,0
14.06.2019 20:00:00 26,5 14,4 25,1 29,2 25,6 17,5 6 3 15 8 N 1010,8 71 0 0,0
14.06.2019 19:00:00 27,6 13,9 26,9 30,5 25,5 17,5 6 3 9 5 N 1011,2 62 0 0,0
14.06.2019 18:00:00 28,9 12,8 29,8 31,5 25,2 17,5 4 2 9 5 NE 1011,7 60 0 0,0
14.06.2019 17:00:00 28,9 10,7 29,4 33,2 24,8 17,5 5 3 16 9 E 1012,6 57 0 0,0
14.06.2019 16:00:00 30,3 10,4 32,5 36,1 24,1 17,5 7 4 22 12 E 1013,1 59 55 0,0
14.06.2019 15:00:00 30,5 11,7 35,6 36,0 23,5 17,5 9 5 29 15 E 1013,9 47 60 0,0
14.06.2019 14:00:00 30,1 12,2 35,1 34,8 22,8 17,5 14 8 27 14 ESE 1014,5 37 60 0,0
14.06.2019 13:00:00 28,8 13,1 33,5 32,9 22,2 17,5 18 10 39 21 SE 1015,3 60 60 0,0
14.06.2019 12:00:00 27,4 13,4 32,2 30,6 21,8 17,5 15 8 35 19 SE 1016,0 49 60 0,0
14.06.2019 11:00:00 25,5 14,7 29,1 28,0 21,5 17,4 12 6 24 13 SE 1016,2 68 60 0,0
14.06.2019 10:00:00 22,8 13,4 26,7 24,5 21,4 17,4 12 6 22 12 SE 1017,0 45 60 0,0
14.06.2019 09:00:00 19,8 11,8 23,1 20,8 21,6 17,4 7 4 13 7 SE 1017,5 50 60 0,0
14.06.2019 08:00:00 15,7 11,4 14,7 17,9 21,8 17,4 5 3 13 7 NNW 1017,9 47 60 0,0
14.06.2019 07:00:00 13,1 11,1 11,7 17,7 22,2 17,4 8 4 12 6 N 1018,2 50 42 0,0
14.06.2019 06:00:00 11,6 10,2 10,2 17,8 22,5 17,4 10 5 13 7 N 1018,7 46 0 0,0

tt = temperature
td = dewpoint
tt 5cm = temperature 5cm
tt -5cm = temperature -5cm
tt -20cm = temperature -20cm
tt -100cm = temperature -100cm
ff = wind speed
fx = gusts
dd = wind direction
ppp = reduced air pressure
vv = visibility
sd = sunshine duration
rr = precipitation

Next stations